| time (UTC) | temp F | wind direction | speed MPH | gust MPH | rain 1hr in | rain 24hr in | rain mn in | humidity % | barometer mb |
| 20260505002014 | 36 | 345 | 13.0 | 23.0 | 0.00 | 0.01 | 0.01 | 45 | 977.8 |
| 20260505001515 | 36 | 312 | 16.0 | 23.0 | 0.00 | 0.01 | 0.01 | 43 | 977.8 |
| 20260505001013 | 36 | 337 | 12.0 | 22.0 | 0.00 | 0.01 | 0.01 | 44 | 977.8 |
| 20260505000518 | 37 | 355 | 12.0 | 21.0 | 0.00 | 0.01 | 0.01 | 44 | 977.7 |
| 20260505000114 | 37 | 355 | 11.0 | 22.0 | 0.00 | 0.01 | 0.01 | 46 | 977.7 |
| 20260504235512 | 37 | 341 | 13.0 | 25.0 | 0.00 | 0.01 | 0.01 | 46 | 977.5 |
| 20260504235012 | 37 | 340 | 12.0 | 25.0 | 0.00 | 0.01 | 0.01 | 46 | 977.4 |
| 20260504234513 | 37 | 334 | 14.0 | 23.0 | 0.00 | 0.01 | 0.01 | 46 | 977.5 |
| 20260504234011 | 37 | 342 | 13.0 | 24.0 | 0.00 | 0.01 | 0.01 | 46 | 977.4 |
| 20260504233511 | 37 | 333 | 14.0 | 25.0 | 0.00 | 0.01 | 0.01 | 46 | 977.4 |
| 20260504233011 | 37 | 332 | 16.0 | 25.0 | 0.00 | 0.01 | 0.01 | 46 | 977.5 |
| 20260504232510 | 37 | 340 | 13.0 | 24.0 | 0.00 | 0.01 | 0.01 | 46 | 977.4 |
| 20260504232011 | 37 | 355 | 12.0 | 24.0 | 0.00 | 0.01 | 0.01 | 47 | 977.4 |
| 20260504231510 | 37 | 344 | 17.0 | 24.0 | 0.00 | 0.01 | 0.01 | 46 | 977.3 |
| 20260504231010 | 37 | 349 | 16.0 | 23.0 | 0.00 | 0.01 | 0.01 | 46 | 977.2 |
| 20260504230510 | 37 | 346 | 15.0 | 23.0 | 0.00 | 0.01 | 0.01 | 47 | 977.1 |
| 20260504230008 | 37 | 329 | 12.0 | 24.0 | 0.00 | 0.01 | 0.01 | 46 | 977.0 |
| 20260504225507 | 38 | 329 | 14.0 | 22.0 | 0.00 | 0.01 | 0.01 | 45 | 977.0 |
| 20260504225007 | 38 | 355 | 14.0 | 22.0 | 0.00 | 0.01 | 0.01 | 45 | 977.0 |
| 20260504224506 | 38 | 324 | 12.0 | 21.0 | 0.00 | 0.01 | 0.01 | 45 | 977.0 |
| 20260504224006 | 39 | 17 | 13.0 | 22.0 | 0.00 | 0.01 | 0.01 | 45 | 977.0 |
| 20260504223507 | 39 | 317 | 13.0 | 22.0 | 0.00 | 0.01 | 0.01 | 44 | 976.9 |
| 20260504223005 | 39 | 350 | 15.0 | 23.0 | 0.00 | 0.01 | 0.01 | 43 | 976.8 |
| 20260504222504 | 39 | 333 | 14.0 | 23.0 | 0.00 | 0.01 | 0.01 | 41 | 976.8 |
| 20260504222007 | 39 | 351 | 13.0 | 21.0 | 0.00 | 0.01 | 0.01 | 43 | 976.7 |
| 20260504221505 | 39 | 348 | 13.0 | 21.0 | 0.00 | 0.01 | 0.01 | 43 | 976.6 |
| 20260504221003 | 39 | 338 | 10.0 | 21.0 | 0.00 | 0.01 | 0.01 | 43 | 976.5 |
| 20260504220503 | 39 | 306 | 11.0 | 21.0 | 0.00 | 0.01 | 0.01 | 42 | 976.6 |
| 20260504220003 | 39 | 340 | 13.0 | 25.0 | 0.00 | 0.01 | 0.01 | 43 | 976.5 |
| 20260504215503 | 39 | 342 | 15.0 | 25.0 | 0.00 | 0.01 | 0.01 | 43 | 976.5 |
| 20260504215006 | 38 | 355 | 15.0 | 22.0 | 0.00 | 0.01 | 0.01 | 43 | 976.4 |
| 20260504214502 | 39 | 330 | 14.0 | 25.0 | 0.00 | 0.01 | 0.01 | 43 | 976.4 |
| 20260504214004 | 39 | 329 | 14.0 | 24.0 | 0.00 | 0.01 | 0.01 | 44 | 976.3 |
| 20260504213502 | 38 | 349 | 14.0 | 24.0 | 0.00 | 0.01 | 0.01 | 45 | 976.2 |
| 20260504213004 | 39 | 333 | 15.0 | 22.0 | 0.00 | 0.01 | 0.01 | 44 | 976.3 |
| 20260504212502 | 39 | 329 | 16.0 | 25.0 | 0.00 | 0.01 | 0.01 | 44 | 976.2 |
| 20260504212001 | 38 | 346 | 15.0 | 25.0 | 0.00 | 0.01 | 0.01 | 47 | 976.1 |
| 20260504211600 | 38 | 348 | 15.0 | 24.0 | 0.00 | 0.01 | 0.01 | 46 | 976.0 |
| 20260504211100 | 38 | 300 | 16.0 | 24.0 | 0.00 | 0.01 | 0.01 | 45 | 976.1 |
| 20260504210600 | 39 | 336 | 15.0 | 26.0 | 0.00 | 0.01 | 0.01 | 46 | 976.2 |
| 20260504210100 | 39 | 313 | 14.0 | 23.0 | 0.00 | 0.01 | 0.01 | 46 | 976.1 |
| 20260504205604 | 39 | 331 | 16.0 | 27.0 | 0.00 | 0.01 | 0.01 | 47 | 976.0 |
| 20260504205103 | 38 | 336 | 14.0 | 27.0 | 0.00 | 0.01 | 0.01 | 48 | 976.1 |
| 20260504204559 | 39 | 335 | 15.0 | 26.0 | 0.00 | 0.01 | 0.01 | 48 | 976.1 |
| 20260504204100 | 38 | 318 | 15.0 | 26.0 | 0.00 | 0.01 | 0.01 | 49 | 976.2 |
| 20260504203601 | 37 | 312 | 17.0 | 26.0 | 0.00 | 0.01 | 0.01 | 47 | 976.3 |
| 20260504203058 | 38 | 317 | 16.0 | 28.0 | 0.00 | 0.01 | 0.01 | 47 | 976.1 |
| 20260504202558 | 37 | 323 | 19.0 | 28.0 | 0.00 | 0.01 | 0.01 | 48 | 976.0 |
| 20260504202058 | 37 | 346 | 15.0 | 29.0 | 0.00 | 0.01 | 0.01 | 49 | 976.0 |
| 20260504201601 | 37 | 344 | 18.0 | 29.0 | 0.00 | 0.01 | 0.01 | 48 | 975.9 |
| 20260504201056 | 37 | 342 | 18.0 | 29.0 | 0.00 | 0.01 | 0.01 | 48 | 975.9 |
| 20260504200556 | 37 | 5 | 16.0 | 26.0 | 0.00 | 0.01 | 0.01 | 48 | 975.7 |
| 20260504200055 | 38 | 330 | 16.0 | 27.0 | 0.00 | 0.01 | 0.01 | 47 | 975.7 |
| 20260504195555 | 38 | 285 | 17.0 | 28.0 | 0.00 | 0.01 | 0.01 | 48 | 975.7 |
| 20260504195057 | 38 | 355 | 18.0 | 28.0 | 0.00 | 0.01 | 0.01 | 49 | 975.6 |
| 20260504194602 | 38 | 332 | 18.0 | 26.0 | 0.00 | 0.01 | 0.01 | 48 | 975.5 |
| 20260504194054 | 39 | 330 | 17.0 | 26.0 | 0.00 | 0.01 | 0.01 | 49 | 975.3 |
| 20260504193554 | 38 | 5 | 17.0 | 26.0 | 0.00 | 0.01 | 0.01 | 49 | 975.4 |
| 20260504193053 | 38 | 309 | 18.0 | 26.0 | 0.00 | 0.01 | 0.01 | 50 | 975.4 |
| 20260504192551 | 39 | 347 | 16.0 | 28.0 | 0.00 | 0.01 | 0.01 | 48 | 975.3 |
| 20260504192051 | 38 | 306 | 17.0 | 31.0 | 0.00 | 0.01 | 0.01 | 50 | 975.1 |
| 20260504191610 | 39 | 338 | 18.0 | 28.0 | 0.00 | 0.01 | 0.01 | 49 | 975.0 |
| 20260504191050 | 39 | 292 | 18.0 | 27.0 | 0.00 | 0.01 | 0.01 | 49 | 974.9 |
| 20260504190548 | 38 | 340 | 17.0 | 29.0 | 0.00 | 0.01 | 0.01 | 49 | 974.8 |
| 20260504190049 | 39 | 292 | 19.0 | 29.0 | 0.00 | 0.01 | 0.01 | 51 | 974.6 |
| 20260504185548 | 39 | 323 | 19.0 | 27.0 | 0.00 | 0.01 | 0.01 | 50 | 974.6 |
| 20260504185047 | 39 | 337 | 15.0 | 26.0 | 0.00 | 0.01 | 0.01 | 51 | 974.4 |
| 20260504184555 | 39 | 355 | 17.0 | 27.0 | 0.00 | 0.01 | 0.01 | 50 | 974.4 |
| 20260504184047 | 38 | 336 | 18.0 | 27.0 | 0.00 | 0.01 | 0.01 | 52 | 974.4 |
| 20260504183547 | 39 | 360 | 17.0 | 25.0 | 0.00 | 0.01 | 0.01 | 51 | 974.4 |
| 20260504183046 | 39 | 341 | 18.0 | 27.0 | 0.00 | 0.01 | 0.01 | 51 | 974.4 |
| 20260504182548 | 39 | 323 | 19.0 | 28.0 | 0.00 | 0.01 | 0.01 | 50 | 974.4 |
| 20260504182046 | 39 | 334 | 18.0 | 26.0 | 0.00 | 0.01 | 0.01 | 50 | 974.3 |
| 20260504181546 | 40 | 360 | 16.0 | 26.0 | 0.00 | 0.01 | 0.01 | 49 | 974.4 |
| 20260504181044 | 40 | 351 | 18.0 | 24.0 | 0.00 | 0.01 | 0.01 | 48 | 974.1 |
| 20260504180547 | 40 | 286 | 17.0 | 28.0 | 0.00 | 0.01 | 0.01 | 49 | 974.1 |
| 20260504180045 | 38 | 300 | 16.0 | 27.0 | 0.00 | 0.01 | 0.01 | 50 | 974.0 |
| 20260504175545 | 39 | 343 | 18.0 | 28.0 | 0.00 | 0.01 | 0.01 | 49 | 974.1 |
| 20260504175144 | 39 | 312 | 19.0 | 28.0 | 0.00 | 0.01 | 0.01 | 49 | 973.9 |
| 20260504174543 | 38 | 330 | 15.0 | 26.0 | 0.00 | 0.01 | 0.01 | 48 | 973.9 |
| 20260504174043 | 37 | 296 | 14.0 | 27.0 | 0.00 | 0.01 | 0.01 | 49 | 973.9 |
| 20260504173544 | 37 | 284 | 17.0 | 27.0 | 0.00 | 0.01 | 0.01 | 49 | 973.9 |
| 20260504173043 | 36 | 313 | 16.0 | 27.0 | 0.00 | 0.01 | 0.01 | 51 | 973.9 |
| 20260504172541 | 36 | 311 | 18.0 | 27.0 | 0.00 | 0.01 | 0.01 | 51 | 973.8 |
| 20260504172044 | 37 | 315 | 14.0 | 26.0 | 0.00 | 0.01 | 0.01 | 51 | 973.5 |
| 20260504171542 | 36 | 319 | 15.0 | 23.0 | 0.00 | 0.01 | 0.01 | 55 | 973.7 |
| 20260504171039 | 36 | 325 | 14.0 | 25.0 | 0.00 | 0.01 | 0.01 | 59 | 973.7 |
| 20260504170540 | 35 | 321 | 16.0 | 29.0 | 0.00 | 0.01 | 0.01 | 55 | 973.6 |
| 20260504151019 | 40 | 348 | 20.0 | 29.0 | 0.00 | 0.01 | 0.01 | 43 | 972.2 |
| 20260504150524 | 40 | 297 | 19.0 | 28.0 | 0.00 | 0.01 | 0.01 | 42 | 972.2 |
| 20260504141013 | 38 | 267 | 13.0 | 24.0 | 0.00 | 0.01 | 0.01 | 50 | 972.0 |
| 20260504140508 | 38 | 263 | 15.0 | 27.0 | 0.00 | 0.01 | 0.01 | 49 | 971.8 |
| 20260504130501 | 37 | 323 | 17.0 | 24.0 | 0.00 | 0.01 | 0.01 | 52 | 971.2 |
| 20260504110543 | 36 | 301 | 14.0 | 28.0 | 0.00 | 0.01 | 0.01 | 53 | 969.4 |
| 20260504100533 | 37 | 306 | 16.0 | 29.0 | 0.00 | 0.01 | 0.01 | 56 | 968.7 |
| 20260504081516 | 39 | 306 | 17.0 | 27.0 | 0.00 | 0.01 | 0.01 | 55 | 966.9 |
| 20260504081019 | 39 | 279 | 15.0 | 30.0 | 0.00 | 0.01 | 0.01 | 55 | 966.8 |
| 20260504080514 | 39 | 294 | 19.0 | 29.0 | 0.00 | 0.01 | 0.01 | 54 | 966.7 |
| 20260504050537 | 49 | 291 | 11.0 | 19.0 | 0.01 | 0.01 | 0.01 | 49 | 964.2 |
| 20260504045535 | 49 | 279 | 8.0 | 12.0 | 0.00 | 0.00 | 0.00 | 49 | 964.0 |
| 20260504045035 | 49 | 257 | 8.0 | 15.0 | 0.00 | 0.00 | 0.00 | 49 | 963.9 |
| 20260504044537 | 49 | 242 | 8.0 | 15.0 | 0.00 | 0.00 | 0.00 | 49 | 963.9 |
| 20260504044036 | 48 | 255 | 9.0 | 13.0 | 0.00 | 0.00 | 0.00 | 49 | 963.8 |
| 20260504043536 | 48 | 255 | 7.0 | 13.0 | 0.00 | 0.00 | 0.00 | 50 | 963.9 |
| 20260504043037 | 48 | 264 | 8.0 | 13.0 | 0.00 | 0.00 | 0.00 | 49 | 964.0 |
| 20260504042535 | 48 | 234 | 8.0 | 14.0 | 0.00 | 0.00 | 0.00 | 49 | 964.0 |
| 20260504042034 | 48 | 360 | 9.0 | 14.0 | 0.00 | 0.00 | 0.00 | 51 | 964.0 |
| 20260504041534 | 47 | 232 | 7.0 | 12.0 | 0.00 | 0.00 | 0.00 | 54 | 964.1 |
| 20260504041034 | 47 | 240 | 6.0 | 10.0 | 0.00 | 0.00 | 0.00 | 53 | 964.2 |
| 20260504040537 | 48 | 360 | 6.0 | 11.0 | 0.00 | 0.00 | 0.00 | 52 | 964.2 |
| 20260504040034 | 48 | 240 | 8.0 | 11.0 | 0.00 | 0.00 | 0.00 | 50 | 964.2 |
| 20260504035534 | 48 | 226 | 5.0 | 9.0 | 0.00 | 0.00 | 0.00 | 51 | 964.1 |
| 20260504035034 | 48 | 242 | 6.0 | 9.0 | 0.00 | 0.00 | 0.00 | 51 | 964.1 |
| 20260504034534 | 49 | 240 | 5.0 | 11.0 | 0.00 | 0.00 | 0.00 | 51 | 964.2 |
| 20260504034037 | 48 | 252 | 5.0 | 13.0 | 0.00 | 0.00 | 0.00 | 50 | 964.0 |
| 20260504033533 | 48 | 239 | 4.0 | 21.0 | 0.00 | 0.00 | 0.00 | 51 | 964.3 |
| 20260504033040 | 47 | 226 | 10.0 | 21.0 | 0.00 | 0.00 | 0.00 | 54 | 964.9 |
| 20260504032537 | 47 | 248 | 7.0 | 15.0 | 0.00 | 0.00 | 0.00 | 55 | 965.1 |
| 20260504032035 | 47 | 246 | 10.0 | 17.0 | 0.00 | 0.00 | 0.00 | 55 | 965.1 |
| 20260504031533 | 48 | 255 | 10.0 | 20.0 | 0.00 | 0.00 | 0.00 | 56 | 965.3 |
| 20260504031032 | 48 | 294 | 12.0 | 21.0 | 0.00 | 0.00 | 0.00 | 56 | 965.7 |
| 20260504030532 | 49 | 257 | 11.0 | 22.0 | 0.00 | 0.00 | 0.00 | 56 | 966.0 |
| 20260504030033 | 49 | 280 | 16.0 | 29.0 | 0.00 | 0.00 | 0.00 | 55 | 966.1 |
| 20260504025532 | 50 | 290 | 19.0 | 31.0 | 0.00 | 0.00 | 0.00 | 54 | 966.1 |
| 20260504025034 | 52 | 284 | 18.0 | 28.0 | 0.00 | 0.00 | 0.00 | 50 | 965.9 |
| 20260504024541 | 53 | 263 | 19.0 | 28.0 | 0.00 | 0.00 | 0.00 | 46 | 965.8 |
| 20260504024032 | 54 | 267 | 20.0 | 29.0 | 0.00 | 0.00 | 0.00 | 45 | 965.6 |
| 20260504023532 | 54 | 269 | 17.0 | 33.0 | 0.00 | 0.00 | 0.00 | 45 | 965.6 |
| 20260504023032 | 55 | 291 | 20.0 | 35.0 | 0.00 | 0.00 | 0.00 | 42 | 965.3 |
| 20260504022535 | 57 | 269 | 21.0 | 35.0 | 0.00 | 0.00 | 0.00 | 39 | 965.1 |
| 20260504022032 | 58 | 285 | 15.0 | 28.0 | 0.00 | 0.00 | 0.00 | 37 | 964.9 |
| 20260504021532 | 59 | 277 | 15.0 | 33.0 | 0.00 | 0.00 | 0.00 | 34 | 964.6 |
| 20260504021030 | 59 | 263 | 14.0 | 33.0 | 0.00 | 0.00 | 0.00 | 32 | 964.3 |
| 20260504020530 | 59 | 285 | 15.0 | 26.0 | 0.00 | 0.00 | 0.00 | 30 | 964.4 |
| 20260504020030 | 60 | 286 | 12.0 | 20.0 | 0.00 | 0.00 | 0.00 | 31 | 964.2 |
| 20260504015530 | 60 | 360 | 10.0 | 16.0 | 0.00 | 0.00 | 0.00 | 30 | 964.1 |
| 20260504015033 | 61 | 306 | 9.0 | 18.0 | 0.00 | 0.00 | 0.00 | 30 | 964.0 |
| 20260504014530 | 61 | 360 | 12.0 | 23.0 | 0.00 | 0.00 | 0.00 | 28 | 964.1 |
| 20260504014032 | 61 | 302 | 13.0 | 20.0 | 0.00 | 0.00 | 0.00 | 28 | 964.0 |
| 20260504013531 | 61 | 306 | 11.0 | 20.0 | 0.00 | 0.00 | 0.00 | 29 | 964.0 |
| 20260504013037 | 61 | 288 | 10.0 | 18.0 | 0.00 | 0.00 | 0.00 | 29 | 964.0 |
| 20260504012531 | 61 | 296 | 10.0 | 18.0 | 0.00 | 0.00 | 0.00 | 28 | 963.9 |
| 20260504012030 | 62 | 360 | 11.0 | 18.0 | 0.00 | 0.00 | 0.00 | 27 | 963.7 |
| 20260504011530 | 62 | 360 | 10.0 | 16.0 | 0.00 | 0.00 | 0.00 | 27 | 963.7 |
| 20260504011032 | 63 | 360 | 10.0 | 19.0 | 0.00 | 0.00 | 0.00 | 26 | 963.7 |
| 20260504010530 | 63 | 360 | 13.0 | 20.0 | 0.00 | 0.00 | 0.00 | 25 | 963.7 |
| 20260504010029 | 64 | 360 | 11.0 | 20.0 | 0.00 | 0.00 | 0.00 | 26 | 963.7 |
| 20260504005528 | 64 | 360 | 7.0 | 14.0 | 0.00 | 0.00 | 0.00 | 28 | 963.7 |
| 20260504005028 | 65 | 302 | 7.0 | 22.0 | 0.00 | 0.00 | 0.00 | 26 | 963.6 |
| 20260504004528 | 65 | 282 | 12.0 | 22.0 | 0.00 | 0.00 | 0.00 | 24 | 963.5 |
| 20260504004027 | 66 | 276 | 10.0 | 17.0 | 0.00 | 0.00 | 0.00 | 25 | 963.6 |
| 20260504003527 | 66 | 360 | 10.0 | 17.0 | 0.00 | 0.00 | 0.00 | 25 | 963.7 |
| 20260504003038 | 66 | 254 | 11.0 | 16.0 | 0.00 | 0.00 | 0.00 | 25 | 963.7 |
| 20260504002529 | 66 | 273 | 10.0 | 16.0 | 0.00 | 0.00 | 0.00 | 25 | 963.8 |